Location: Newark
(33.6439°N, 114.9881°W)
Time: 14:01:09
(UTC+00:00)

S-56A Canister/Altair - All Passes

Search period start: 23 July 2019 00:00
Search period end: 02 August 2019 00:00
Orbit: 632 x 2500 km, 38.9° (Epoch: 22 July)

Date Brightness Start Highest point End Pass type
(mag) Time Alt. Az. Time Alt. Az. Time Alt. Az.
23 Jul - 10:29:34 10° SSE 10:34:39 17° SE 10:40:49 10° E visible
23 Jul - 12:28:34 10° SW 12:37:50 60° SE 12:51:13 10° ENE daylight
23 Jul - 14:32:24 10° WSW 14:43:57 78° NNW 14:59:11 10° ENE daylight
23 Jul - 16:38:15 10° WNW 16:51:59 73° N 17:07:08 10° E daylight
23 Jul - 18:44:42 10° WNW 18:59:46 81° SSW 19:13:38 10° ESE daylight
23 Jul - 20:52:20 10° WNW 21:05:27 38° SW 21:16:28 10° SSE daylight
24 Jul - 09:59:01 10° SE 10:02:01 12° ESE 10:05:23 10° ESE visible
24 Jul - 11:56:13 10° SW 12:04:47 53° SE 12:17:17 10° ENE visible
24 Jul - 13:59:33 10° WSW 14:10:24 81° NNW 14:25:20 10° ENE daylight
24 Jul - 16:05:04 10° W 16:18:11 72° N 16:33:28 10° E daylight
24 Jul - 18:11:15 10° WNW 18:26:04 86° SSW 18:40:28 10° ESE daylight
24 Jul - 20:18:27 10° WNW 20:32:10 43° SW 20:44:01 10° SSE daylight
24 Jul - 22:34:15 10° WSW 22:35:56 10° WSW 22:37:35 10° SW daylight
25 Jul - 11:23:56 10° SSW 11:31:51 46° SE 11:43:21 10° ENE visible
25 Jul - 13:26:47 10° WSW 13:36:57 85° NNW 13:51:28 10° ENE daylight
25 Jul - 15:31:58 10° W 15:44:25 71° N 15:59:44 10° E daylight
25 Jul - 17:37:55 10° WNW 17:52:21 90° NNE 18:07:10 10° ESE daylight
25 Jul - 19:44:42 10° WNW 19:58:48 49° SW 20:11:23 10° SSE daylight
25 Jul - 21:56:46 10° W 22:02:57 14° SW 22:08:39 10° SSW daylight
26 Jul - 10:51:48 10° SSW 10:59:00 39° SE 11:09:22 10° ENE visible
26 Jul - 12:54:06 10° WSW 13:03:36 89° NNW 13:17:35 10° ENE daylight
26 Jul - 14:58:57 10° W 15:10:43 70° N 15:25:54 10° E daylight
26 Jul - 17:04:39 10° WNW 17:18:37 86° NNE 17:33:45 10° ESE daylight
26 Jul - 19:11:04 10° WNW 19:25:20 54° SW 19:38:37 10° SE daylight
26 Jul - 21:21:28 10° W 21:29:54 18° SW 21:37:36 10° SSW daylight
27 Jul - 10:19:47 10° SSW 10:26:16 32° SE 10:35:23 10° ENE visible
27 Jul - 12:21:31 10° WSW 12:30:21 86° SSE 12:43:42 10° ENE visible
27 Jul - 14:26:02 10° W 14:37:06 70° N 14:52:00 10° E daylight
27 Jul - 16:31:30 10° WNW 16:44:52 82° NNE 17:00:12 10° ESE daylight
27 Jul - 18:37:34 10° WNW 18:51:49 59° SW 19:05:42 10° SE daylight
27 Jul - 20:46:46 10° W 20:56:46 22° SW 21:05:56 10° S daylight
28 Jul - 09:47:56 10° S 09:53:38 26° SE 10:01:19 10° E visible
28 Jul - 11:49:00 10° WSW 11:57:14 80° SSE 12:09:50 10° ENE visible
28 Jul - 13:53:12 10° W 14:03:33 70° N 14:18:05 10° E daylight
28 Jul - 15:58:24 10° WNW 16:11:09 79° NNE 16:26:32 10° ESE daylight
28 Jul - 18:04:10 10° WNW 18:18:15 64° SW 18:32:38 10° SE daylight
28 Jul - 20:12:28 10° W 20:23:33 26° SW 20:33:56 10° S daylight
29 Jul - 09:16:17 10° S 09:21:03 20° SE 09:27:09 10° E visible
29 Jul - 11:16:35 10° SW 11:24:12 72° SSE 11:36:00 10° ENE visible
29 Jul - 13:20:25 10° W 13:30:05 71° N 13:44:08 10° ENE daylight
29 Jul - 15:25:25 10° WNW 15:37:29 76° NNE 15:52:46 10° E daylight
29 Jul - 17:30:53 10° WNW 17:44:38 70° SSW 17:59:28 10° SE daylight
29 Jul - 19:38:25 10° W 19:50:16 30° SW 20:01:38 10° S daylight
30 Jul - 08:45:01 10° SSE 08:48:33 15° SE 08:52:43 10° E visible
30 Jul - 10:44:14 10° SW 10:51:18 64° SSE 11:02:12 10° ENE visible
30 Jul - 12:47:44 10° W 12:56:44 72° N 13:10:11 10° ENE daylight
30 Jul - 14:52:30 10° WNW 15:03:51 74° NNE 15:18:55 10° E daylight
30 Jul - 16:57:43 10° WNW 17:11:01 74° SSW 17:26:08 10° SE daylight
30 Jul - 19:04:36 10° WNW 19:16:56 34° SW 19:29:09 10° SSE daylight
31 Jul - 08:15:12 10° SE 08:16:04 10° SE 08:16:57 10° ESE visible
31 Jul - 10:11:58 10° SW 10:18:29 56° SE 10:28:26 10° ENE visible
31 Jul - 12:15:06 10° W 12:23:28 74° NNW 12:36:16 10° ENE visible
31 Jul - 14:19:40 10° WNW 14:30:18 71° N 14:45:00 10° E daylight
31 Jul - 16:24:37 10° WNW 16:37:24 79° SSW 16:52:40 10° SE daylight
31 Jul - 18:30:58 10° WNW 18:43:32 38° SW 18:56:28 10° SSE daylight
01 Aug - 09:39:47 10° SW 09:45:47 47° SE 09:54:43 10° ENE visible
01 Aug - 11:42:33 10° W 11:50:19 77° NNW 12:02:22 10° ENE visible
01 Aug - 13:46:54 10° WNW 13:56:49 69° N 14:11:01 10° E daylight
01 Aug - 15:51:38 10° WNW 16:03:49 84° SSW 16:19:07 10° ESE daylight
01 Aug - 17:57:30 10° WNW 18:10:05 42° SW 18:23:37 10° SSE daylight
01 Aug - 20:10:43 10° WSW 20:14:58 12° SW 20:19:11 10° SW daylight
